Location: Castifao
(42.5040°N, 9.1124°E)
Time: 07:29:00
(UTC+00:00)

CZ-2D R/B - Pass Details

Date: 23 January 2020
Orbit: 523 x 537 km, 97.4° (Epoch: 18 February)

Event Time Altitude Azimuth Distance (km) Brightness Sun altitude
Rises 17:21:57 0° 140° (SE) 2,651 6.6 -10.6°
Reaches altitude 10° 17:24:15 10° 128° (SE) 1,769 5.6 -11.0°
Maximum altitude 17:27:30 27° 70° (ENE) 1,040 4.1 -11.6°
Drops below altitude 10° 17:30:47 10° 11° (NNE) 1,789 5.7 -12.2°
Sets 17:33:07 0° 360° (N) 2,687 6.7 -12.6°
